Piney Island, NC

10:17 PM EDT on July 20, 2017 (GMT -0400)
Piney Island

Weather History for KNBT - February, 2013

Change the Weather History Date:

Friday, February 8, 2013

  Actual Average (KMRH) Record (KMRH)
Temperature  
Mean Temperature 54 °F -  
Max Temperature 61 °F 54 °F 70 °F (1990)
Min Temperature 48 °F 32 °F 15 °F (1977)
Degree Days  
Heating Degree Days 10    
Growing Degree Days 4 (Base 50)    
Moisture  
Dew Point 45 °F    
Average Humidity 79    
Maximum Humidity 100    
Minimum Humidity 56    
Precipitation  
Precipitation 1.06 in - - ()
Sea Level Pressure  
Sea Level Pressure 29.68 in    
Wind  
Wind Speed 18 mph (NW)    
Max Wind Speed 26 mph    
Max Gust Speed 43 mph    
Visibility 6 miles    
Events Fog , Rain    
Averages and records for this station are not official NWS values.
T = Trace of Precipitation, MM = Missing Value Source: NWS Daily Summary

Daily Weather History Graph

Daily Weather History Graph

Search for Another Location

Airport or City:

Trip Planner

Search our weather history database for the weather conditions in past years. The results will help you decide how hot, cold, wet, or windy it might be!

Date:

Astronomy

Feb. 08, 2013 Rise Set
Actual Time 6:58 AM EST 5:41 PM EST
Civil Twilight 6:32 AM EST 6:08 PM EST
Nautical Twilight 6:02 AM EST 6:38 PM EST
Astronomical Twilight 5:32 AM EST 7:07 PM EST
Moon 5:23 AM EST (2/8) 4:13 PM EST (2/8)
Length of Visible Light 11h 35m
Length of Day
10h 43m
Waning Crescent, 3% of the Moon is Illuminated
Feb 8
Waning Crescent
Feb 10
New
Feb 17
First Quarter
Feb 25
Full
Mar 4
Last Quarter

Hourly Weather History & Observations

Time (EST) Temp. Dew Point Humidity Pressure Visibility Wind Dir Wind Speed Gust Speed Precip Events Conditions
12:33 AM 53.6 °F - N/A% 29.83 in 2.5 mi ENE 23.0 mph 33.4 mph 0.13 in Rain Heavy Rain
12:56 AM 53.1 °F - N/A% 29.82 in 2.5 mi ENE 25.3 mph 35.7 mph 0.23 in Rain Heavy Rain
1:12 AM 53.6 °F - N/A% 29.78 in 2.5 mi ENE 24.2 mph 34.5 mph 0.05 in Rain Rain
1:48 AM 57.2 °F - N/A% 29.74 in 2.0 mi East 24.2 mph 42.6 mph 0.26 in Rain Heavy Rain
1:56 AM 57.9 °F - N/A% 29.75 in 1.8 mi East 24.2 mph 33.4 mph 0.34 in Rain Heavy Rain
2:20 AM 59.0 °F - N/A% 29.71 in 2.0 mi East 18.4 mph 27.6 mph 0.16 in Rain Heavy Rain
2:42 AM 60.8 °F - N/A% 29.67 in 3.0 mi ESE 17.3 mph 34.5 mph 0.29 in Rain Heavy Rain
2:56 AM 61.0 °F - N/A% 29.67 in 3.0 mi ESE 18.4 mph 26.5 mph 0.34 in Rain Rain
3:35 AM 60.8 °F - N/A% 29.60 in 4.0 mi ENE 12.7 mph - 0.07 in Rain Light Rain
3:42 AM 59.0 °F - N/A% 29.59 in 1.8 mi ENE 11.5 mph - 0.08 in Rain Rain
3:56 AM 57.9 °F - N/A% 29.58 in 2.5 mi ENE 13.8 mph - 0.10 in Rain Light Rain
4:05 AM 55.4 °F - N/A% 29.56 in 1.8 mi NE 12.7 mph 21.9 mph 0.00 in Rain Light Rain
4:56 AM 55.9 °F - N/A% 29.51 in 1.2 mi ENE 9.2 mph - 0.03 in   Overcast
5:25 AM 55.4 °F - N/A% 29.47 in 0.8 mi NE 5.8 mph - 0.01 in Rain Rain
5:33 AM 55.4 °F - N/A% 29.47 in 0.5 mi NNE 4.6 mph - 0.01 in Rain Light Rain
5:43 AM 55.4 °F - N/A% 29.46 in 0.5 mi ENE 5.8 mph - 0.01 in Fog Fog
5:53 AM 57.2 °F - N/A% 29.45 in 0.5 mi Calm Calm - 0.01 in Fog Fog
5:56 AM 59.0 °F - N/A% 29.47 in 1.0 mi Calm Calm - 0.01 in   Overcast
6:34 AM 55.4 °F - N/A% 29.46 in 5.0 mi NW 19.6 mph 28.8 mph 0.00 in Rain Light Rain
6:49 AM 53.6 °F - N/A% 29.47 in 7.0 mi NW 21.9 mph 27.6 mph 0.00 in Rain Light Rain
6:56 AM 53.1 °F - N/A% 29.48 in 9.0 mi NW 20.7 mph 27.6 mph 0.00 in   Overcast
7:19 AM 51.8 °F - N/A% 29.51 in 5.0 mi WNW 20.7 mph 29.9 mph 0.01 in   Haze
7:39 AM 50.0 °F - N/A% 29.54 in 2.5 mi West 19.6 mph 27.6 mph 0.01 in Rain Light Rain
7:56 AM 48.9 °F - N/A% 29.58 in 2.5 mi WNW 21.9 mph 29.9 mph 0.01 in Rain Light Rain
8:06 AM 48.2 °F - N/A% 29.58 in 5.0 mi WNW 21.9 mph 32.2 mph 0.00 in   Haze
8:33 AM 48.2 °F - N/A% 29.60 in 4.0 mi WNW 26.5 mph 34.5 mph 0.00 in   Haze
8:56 AM 48.9 °F - N/A% 29.63 in 3.0 mi WNW 24.2 mph 33.4 mph 0.00 in Rain Light Rain
9:56 AM 48.9 °F - N/A% 29.68 in 10.0 mi NW 21.9 mph 35.7 mph 0.00 in   Overcast
10:09 AM 50.0 °F 50.0 °F 100% 29.67 in 10.0 mi NW 19.6 mph 34.5 mph N/A   Overcast
10:56 AM 51.1 °F 50.0 °F 96% 29.72 in 10.0 mi NW 21.9 mph 27.6 mph N/A   Overcast
11:56 AM 55.0 °F 46.9 °F 74% 29.75 in 10.0 mi WNW 21.9 mph 27.6 mph N/A   Mostly Cloudy
12:08 PM 55.4 °F 48.2 °F 77% 29.74 in 10.0 mi WNW 16.1 mph 28.8 mph N/A   Mostly Cloudy
12:56 PM 52.0 °F 46.0 °F 80% 29.78 in 10.0 mi West 19.6 mph 27.6 mph N/A   Overcast
1:32 PM 51.8 °F 44.6 °F 76% 29.76 in 10.0 mi West 19.6 mph 32.2 mph N/A   Overcast
1:56 PM 51.1 °F 45.0 °F 80% 29.78 in 10.0 mi WNW 21.9 mph 28.8 mph N/A   Overcast
2:25 PM 51.8 °F 44.6 °F 76% 29.78 in 10.0 mi West 18.4 mph 25.3 mph N/A   Mostly Cloudy
2:56 PM 53.1 °F 45.0 °F 74% 29.80 in 10.0 mi WNW 19.6 mph 27.6 mph N/A   Mostly Cloudy
3:20 PM 51.8 °F 44.6 °F 76% 29.78 in 10.0 mi West 17.3 mph 24.2 mph N/A   Scattered Clouds
3:56 PM 52.0 °F 44.1 °F 74% 29.81 in 10.0 mi West 17.3 mph - N/A   Clear
4:56 PM 52.0 °F 45.0 °F 77% 29.82 in 10.0 mi West 12.7 mph - N/A   Clear
5:56 PM 51.1 °F 45.0 °F 80% 29.84 in 10.0 mi WSW 10.4 mph - N/A   Clear
6:56 PM 50.0 °F 45.0 °F 83% 29.87 in 10.0 mi WSW 9.2 mph - N/A   Clear
7:56 PM 52.0 °F 45.0 °F 77% 29.88 in 10.0 mi West 12.7 mph - N/A   Overcast
8:56 PM 51.1 °F 45.0 °F 80% 29.91 in 10.0 mi West 10.4 mph - N/A   Clear
9:56 PM 50.0 °F 46.0 °F 86% 29.92 in 10.0 mi West 10.4 mph - N/A   Partly Cloudy
10:56 PM 51.1 °F 44.1 °F 77% 29.94 in 10.0 mi WNW 16.1 mph 25.3 mph N/A   Clear
11:56 PM 48.0 °F 33.1 °F 56% 29.98 in 10.0 mi NW 19.6 mph 32.2 mph N/A   Clear